Dewpoint
70 73 77 76 76 76 75 75 76 77 77 77 77 77 77 77 76 76 76 76 75 74 73 73 73 74 74 74 74 73 73 72 73 74 75 74 74 73 73 74 73 71 73
70 74 77 77 76 75 75 75 75 76 76 77 77 77 77 77 76 76 76 76 74 73 73 73 73 73 73 74 74 73 73 73 74 73 73 73 72 71 71 71 72 70 71
72 74 75 77 77 75 75 75 75 76 75 75 77 77 76 76 76 75 75 74 74 74 73 73 73 73 73 74 74 73 73 74 74 73 73 71 72 70 72 73 71 71 70
72 74 74 77 77 77 76 76 76 75 75 75 76 76 77 75 75 75 74 74 73 73 73 73 73 73 74 74 73 74 73 74 73 73 70 70 70 73 72 73 73 72 73
72 73 74 77 77 76 76 77 77 76 76 75 74 75 75 76 75 74 75 74 73 73 74 74 75 74 74 73 73 74 73 73 73 72 70 69 71 73 72 72 73 74 74
73 73 76 78 77 76 76 76 76 76 76 76 75 74 75 75 75 75 74 74 75 75 74 75 75 74 73 74 74 74 73 73 73 70 69 72 70 74 73 72 71 71 72
73 73 75 77 77 77 76 76 76 76 76 76 76 75 75 75 75 75 74 74 74 74 74 74 74 74 74 74 73 73 74 72 69 69 70 72 71 74 73 73 73 70 70
72 74 74 76 77 77 76 75 75 75 75 75 76 75 75 75 76 75 75 75 75 74 74 75 74 73 73 73 73 73 72 71 69 70 72 72 73 75 74 73 73 72 71
73 74 74 74 75 76 76 75 75 75 75 75 76 76 75 75 75 74 75 74 75 75 75 73 73 73 73 73 73 72 72 73 70 69 71 72 75 75 74 73 72 72 71
73 74 74 74 74 74 74 77 76 76 75 75 75 75 75 75 75 75 75 74 74 74 73 73 74 74 74 74 72 71 72 73 71 68 70 72 75 73 72 72 71 71 74
72 73 74 74 73 73 74 75 76 75 75 75 74 75 75 73 73 73 74 73 73 75 74 74 73 74 74 72 72 73 73 71 70 70 70 73 75 73 72 73 73 72 73
70 72 73 73 73 73 73 73 73 72 73 73 74 73 73 73 73 74 74 73 72 74 74 75 74 73 72 71 71 72 72 71 71 69 70 75 75 73 74 75 74 73 72
69 71 72 72 73 73 73 73 73 73 73 72 73 73 73 73 73 74 73 73 71 72 72 74 73 72 72 71 70 69 69 70 70 69 68 75 75 75 74 73 74 73 72
69 70 71 72 72 73 73 73 73 73 73 72 72 72 72 72 72 72 72 72 72 71 72 73 72 72 71 71 70 69 68 68 68 68 68 74 75 76 75 74 74 73 72
68 69 71 71 72 72 72 73 73 72 72 72 71 72 72 71 71 72 71 72 71 70 71 71 72 72 71 71 70 69 68 66 66 68 68 74 75 75 76 73 74 74 73
69 69 70 71 71 71 72 72 72 72 72 72 72 72 72 72 70 71 71 72 71 70 69 71 70 70 70 70 69 69 68 67 68 70 69 72 75 74 75 75 75 74 73
68 68 70 70 70 70 71 72 71 72 72 71 72 72 72 71 70 71 71 71 71 70 68 68 70 70 69 69 68 68 67 66 67 69 68 71 72 75 75 76 76 75 75
68 68 69 70 70 70 70 70 70 71 71 71 71 72 72 72 70 70 70 71 71 70 69 68 68 68 68 68 68 67 67 66 65 68 68 69 71 71 73 75 75 75 75
68 68 68 69 69 69 70 70 69 70 70 71 71 71 72 72 71 70 70 70 71 70 70 69 68 68 67 68 68 68 67 66 65 65 67 69 70 71 71 73 75 75 75
68 68 69 68 69 69 70 71 70 71 70 70 71 71 71 72 71 70 70 70 70 70 70 70 69 69 68 68 68 68 68 68 67 66 65 65 70 70 71 71 71 72 75
68 68 69 68 69 69 69 70 70 69 70 70 70 71 71 72 71 71 70 70 70 70 69 70 69 68 68 68 66 66 66 68 67 68 68 66 66 67 70 70 70 70 70
68 69 69 69 70 69 69 69 69 70 70 70 70 70 72 71 71 71 70 70 70 70 69 69 69 67 68 68 65 64 62 63 64 66 68 69 68 69 67 69 70 70 71
67 69 69 70 70 70 69 69 69 68 69 69 69 70 70 71 71 71 70 70 70 70 69 69 69 68 66 67 67 65 61 60 62 64 65 67 68 69 69 69 69 70 71
66 68 70 70 70 70 70 69 68 67 66 68 68 69 70 71 71 71 70 70 70 69 69 69 69 68 67 66 66 68 65 64 61 60 64 66 68 68 68 69 70 70 72
67 68 69 71 71 71 70 69 69 67 66 67 67 68 69 70 71 71 71 70 70 70 69 69 69 69 69 66 66 66 66 66 64 63 62 64 66 68 68 69 69 69 70
66 69 69 69 70 71 70 69 69 68 66 66 67 67 68 69 70 71 71 71 70 70 70 69 69 69 69 68 67 66 65 65 64 63 64 64 64 66 67 68 69 69 69
Lifted_Index
-3 -4 -5 -5 -5 -5 -5 -5 -5 -6 -6 -7 -7 -7 -7 -7 -5 -5 -4 -4 -4 -3 -3 -3 -3 -3 -3 -4 -3 -3 -2 -3 -3 -3 -3 -3 -3 -2 -2 -2 -2 -2 -2
-3 -4 -5 -5 -5 -5 -5 -5 -6 -6 -7 -7 -7 -8 -8 -7 -6 -4 -4 -4 -3 -3 -3 -3 -3 -3 -3 -3 -3 -3 -3 -3 -3 -3 -3 -3 -2 -2 -1 -2 -1 -1 -1
-4 -5 -5 -5 -5 -5 -5 -6 -6 -7 -7 -7 -8 -8 -8 -7 -6 -5 -4 -4 -3 -3 -3 -3 -3 -3 -3 -3 -3 -3 -3 -3 -3 -3 -3 -2 -2 -1 -1 -2 -1 -1 -1
-4 -5 -5 -6 -6 -6 -6 -7 -7 -7 -7 -7 -8 -8 -8 -7 -6 -5 -4 -4 -3 -3 -3 -3 -4 -3 -3 -3 -3 -3 -3 -3 -3 -2 -2 -2 -2 -2 -2 -2 -2 -2 -2
-5 -5 -6 -6 -7 -7 -7 -7 -7 -7 -8 -8 -8 -8 -8 -7 -6 -5 -5 -4 -4 -4 -4 -4 -4 -4 -3 -3 -3 -3 -3 -3 -2 -2 -2 -2 -3 -2 -2 -2 -2 -2 -2
-5 -5 -6 -7 -7 -7 -7 -7 -7 -8 -8 -8 -8 -8 -7 -6 -6 -6 -5 -5 -4 -4 -4 -4 -4 -4 -3 -3 -3 -3 -3 -2 -2 -2 -1 -2 -2 -3 -2 -2 -2 -2 -2
-5 -5 -6 -7 -7 -7 -7 -7 -7 -8 -8 -8 -8 -8 -7 -6 -6 -6 -6 -5 -5 -4 -4 -4 -4 -4 -3 -3 -3 -3 -3 -2 -2 -2 -2 -2 -3 -3 -3 -2 -2 -1 -1
-4 -5 -6 -6 -7 -7 -7 -7 -7 -7 -8 -8 -8 -8 -8 -7 -6 -6 -6 -5 -5 -4 -4 -4 -3 -3 -3 -3 -3 -2 -2 -2 -2 -2 -2 -2 -3 -3 -3 -2 -2 -1 -1
-5 -5 -5 -6 -6 -6 -7 -7 -7 -7 -7 -8 -8 -8 -8 -7 -7 -6 -6 -5 -5 -5 -4 -3 -3 -3 -3 -3 -2 -2 -2 -2 -2 -1 -2 -3 -3 -3 -3 -2 -1 -1 -1
-5 -5 -5 -5 -6 -6 -6 -7 -7 -7 -7 -8 -8 -8 -8 -7 -7 -6 -6 -5 -5 -4 -4 -3 -3 -3 -3 -3 -2 -2 -2 -2 -2 -1 -2 -2 -3 -3 -2 -2 -1 -2 -2
-4 -5 -5 -5 -5 -5 -6 -6 -7 -7 -7 -7 -7 -8 -7 -7 -7 -6 -6 -5 -4 -4 -4 -4 -4 -4 -3 -3 -2 -3 -3 -2 -2 -1 -1 -2 -3 -3 -2 -2 -2 -2 -2
-4 -4 -5 -5 -5 -5 -5 -6 -6 -6 -6 -7 -7 -7 -7 -7 -7 -6 -6 -5 -4 -4 -5 -4 -4 -4 -3 -3 -3 -3 -2 -2 -2 -2 -2 -2 -3 -3 -3 -3 -3 -2 -2
-4 -4 -4 -4 -4 -4 -5 -5 -5 -6 -6 -6 -6 -6 -6 -6 -6 -6 -6 -5 -5 -4 -5 -5 -4 -4 -3 -3 -2 -2 -2 -2 -2 -2 -2 -3 -3 -4 -4 -3 -3 -2 -2
-4 -4 -4 -4 -4 -4 -4 -5 -5 -5 -5 -5 -6 -6 -6 -6 -6 -5 -5 -5 -5 -4 -4 -4 -4 -3 -3 -2 -2 -2 -2 -1 -1 -1 -2 -3 -4 -4 -4 -4 -3 -3 -2
-4 -4 -4 -4 -3 -4 -4 -4 -5 -5 -5 -5 -5 -5 -5 -5 -5 -5 -5 -5 -5 -4 -4 -4 -4 -3 -3 -2 -2 -2 -2 -2 -1 -1 -2 -3 -3 -4 -4 -4 -3 -3 -3
-5 -4 -4 -4 -3 -3 -3 -3 -4 -4 -4 -4 -4 -4 -4 -5 -5 -5 -4 -4 -4 -4 -3 -3 -3 -3 -2 -2 -2 -2 -2 -2 -2 -2 -2 -3 -3 -3 -4 -4 -4 -3 -3
-5 -5 -4 -4 -3 -3 -3 -3 -3 -3 -3 -3 -4 -4 -4 -4 -4 -4 -4 -4 -4 -4 -3 -2 -2 -2 -2 -2 -1 -1 -1 -2 -2 -2 -2 -2 -3 -3 -3 -4 -4 -4 -3
-5 -5 -5 -4 -3 -3 -3 -2 -2 -2 -2 -3 -3 -4 -4 -4 -4 -4 -4 -4 -4 -3 -3 -2 -2 -2 -2 -1 -1 -1 -1 -1 -2 -2 -2 -2 -2 -3 -3 -4 -4 -4 -4
-5 -5 -5 -5 -4 -3 -3 -3 -2 -2 -2 -2 -3 -3 -4 -4 -4 -3 -3 -3 -3 -3 -3 -2 -2 -2 -2 -2 -2 -2 -2 -2 -2 -2 -2 -2 -2 -2 -2 -3 -3 -4 -4
-5 -5 -5 -5 -5 -4 -4 -3 -3 -3 -2 -2 -3 -3 -3 -3 -3 -3 -3 -3 -3 -3 -3 -3 -2 -2 -2 -2 -2 -2 -2 -2 -2 -2 -2 -2 -2 -2 -2 -2 -3 -3 -3
-6 -6 -6 -5 -5 -5 -5 -4 -4 -3 -3 -3 -3 -3 -3 -3 -3 -3 -3 -2 -3 -3 -3 -3 -3 -3 -3 -3 -3 -2 -2 -2 -2 -2 -2 -2 -2 -2 -2 -2 -2 -2 -3
-6 -6 -6 -6 -6 -5 -5 -5 -4 -4 -3 -3 -3 -3 -3 -3 -3 -3 -3 -2 -2 -2 -3 -3 -3 -3 -3 -3 -3 -3 -2 -2 -2 -1 -1 -2 -2 -2 -2 -2 -2 -2 -2
-6 -6 -6 -6 -6 -6 -6 -5 -5 -4 -4 -4 -4 -3 -3 -3 -3 -3 -2 -2 -2 -2 -3 -3 -3 -3 -3 -3 -3 -2 -2 -2 -1 -1 -1 -1 -2 -2 -2 -2 -2 -2 -2
-6 -6 -6 -7 -7 -6 -6 -6 -5 -5 -4 -4 -4 -4 -4 -3 -3 -3 -2 -2 -2 -2 -3 -3 -3 -3 -3 -3 -3 -2 -2 -2 -1 -1 -1 -1 -2 -2 -2 -2 -2 -2 -2
-6 -6 -6 -7 -7 -7 -7 -6 -6 -5 -5 -4 -4 -4 -4 -4 -3 -3 -2 -2 -2 -2 -2 -3 -3 -3 -3 -3 -3 -2 -2 -2 -2 -2 -1 -1 -1 -1 -1 -1 -2 -2 -2
-6 -6 -6 -7 -7 -7 -7 -6 -6 -5 -5 -5 -5 -5 -4 -4 -3 -3 -3 -2 -2 -2 -2 -3 -3 -3 -3 -3 -3 -2 -2 -2 -2 -2 -1 -1 -1 -1 -1 -1 -2 -2 -2